User: anonymous   Login
Location: Unspecified
(0.0000°N, 0.0000°E)
Time: 15:12:01
(UTC+00:00)
Language:

Tiros 1 despin weight - Orbit

View from above orbital plane
View from above orbital plane
View from above satellite
View from above satellite

Ground track
Ground track

The orbit data is extracted from the following two-line orbital elements,

1 00115U 60002D   23269.38213718  .00004592  00000-0  52700-3 0  9997
2 00115  48.1637 275.3066 0031658 128.1020 232.2756 14.87037074369493
Epoch (UTC): 26 September 2023 09:10:16
Eccentricity: 0.0031658
inclination: 48.1637°
perigee height: 585 km
apogee height: 629 km
right ascension of ascending node: 275.3066°
argument of perigee: 128.1020°
revolutions per day: 14.87037074
mean anomaly at epoch: 232.2756°
orbit number at epoch: 36949

The dashed part of the orbit path shows where the satellite is in the earth's shadow,  

DLR